276  
ASUS42 KILM 271513  
RWRILM  
RWRILM  
REGIONAL HOURLY WEATHER ROUNDUP  
NATIONAL WEATHER SERVICE WILMINGTON NC  
1100 AM EDT TUE JUN 27 2017  
 
NOTE: "FAIR" INDICATES FEW OR NO CLOUDS BELOW 12,000 FEET WITH NO  
SIGNIFICANT WEATHER AND/OR S TO VISIBILITY
.  
   
..............WFO WILMINGTON COUNTY WARNING AREA............
 
 
   
.....COASTAL NC AND SC COUNTIES...
 
 
 
CITY SKY/WX TMP DP RH WIND PRES REMARKS
 
WILMINGTON SUNNY 83 63 50 W7 30.03S  
N MYRTLE BEACH MOSUNNY 82 65 56 VRB3 30.04S  
MYRTLE BEACH SUNNY 82 64 54 NW8 30.05R  
   
.....INLAND NC AND SC COUNTIES....
 
 
 
CITY SKY/WX TMP DP RH WIND PRES REMARKS
 
LUMBERTON SUNNY 82 63 52 CALM 30.04S  
ELIZABETHTOWN NOT AVBL  
WHITEVILLE PTSUNNY 80 64 59 W3 30.04S  
FLORENCE MOSUNNY 82 62 50 W6 30.05S  
DARLINGTON SUNNY 81 63 54 VRB6 30.06S  
KINGSTREE FAIR 79 64 61 NW3 30.05S  
HARTSVILLE FAIR 81 57 44 NE6 30.06R  
BENNETTSVILLE FAIR 82 63 51 NW7 30.05S  
CONWAY FAIR 79 64 61 NW3 30.05S HAZE  
GEORGETOWN FAIR 81 63 54 CALM 30.05S  
MARION FAIR 79 63 57 NW6 30.05S  
   
...................REST OF NORTH CAROLINA...................
 
 
   
........EASTERN NC......
 
 
 
CITY SKY/WX TMP DP RH WIND PRES REMARKS
 
CAPE HATTERAS NOT AVBL  
JACKSONVILLE MOSUNNY 83 65 54 VRB3 30.04S  
MOREHEAD CITY SUNNY 83 66 56 NW6 30.03S  
KENANSVILLE CLOUDY 79 63 57 CALM 30.04F  
NEW BERN CLOUDY 82 64 54 W5 30.05R  
ELIZABETH CITY MOSUNNY 82 65 56 W5 30.02S  
   
........CENTRAL NC......
 
 
 
CITY SKY/WX TMP DP RH WIND PRES REMARKS
 
RALEIGH DURHAM MOSUNNY 76 54 46 NE8 30.08S  
ROCKY MOUNT PTSUNNY 78 56 46 N12 30.06R  
ROANOKE RAPIDS NOT AVBL  
FAYETTEVILLE SUNNY 84 61 45 N9 30.04S  
HOFFMAN NOT AVBL  
   
........WESTERN NC......
 
 
 
CITY SKY/WX TMP DP RH WIND PRES REMARKS
 
CHARLOTTE MOSUNNY 78 56 46 NE9G17 30.10S  
GREENSBORO MOSUNNY 76 55 48 NE6 30.09F  
HICKORY NOT AVBL  
BOONE NOT AVBL  
ASHEVILLE NOT AVBL  
   
....................REST OF SOUTH CAROLINA..................
 
 
   
........EASTERN SC......
 
 
 
CITY SKY/WX TMP DP RH WIND PRES REMARKS
 
CHARLESTON PTSUNNY 83 66 56 N6 30.04S  
BEAUFORT MCAS CLOUDY 84 71 65 N5 30.04S  
HILTON HEAD MOSUNNY 82 70 65 N7 30.04S  
   
........CENTRAL SC......
 
 
 
CITY SKY/WX TMP DP RH WIND PRES REMARKS
 
COLUMBIA CLOUDY 83 61 47 NW8 30.05S  
ORANGEBURG MOSUNNY 83 61 47 NW5 30.05S  
SUMTER SHAW PTSUNNY 82 62 50 NW6 30.03S  
   
........WESTERN SC......
 
 
 
CITY SKY/WX TMP DP RH WIND PRES REMARKS
 
GREENVILLE NOT AVBL  
ROCK HILL SUNNY 78 56 46 NE8 30.10R  
ANDERSON SUNNY 78 55 44 E3 30.09S  
CLEMSON NOT AVBL  
GREENWOOD SUNNY 77 58 51 NE6 30.10S  
 
   
..................COASTAL AND OFFSHORE REPORTS...............
 
 
   
...............LOCAL PIERS AND NC RESERVE.............
 
 
 
STATION/POSITION TIME SKY/WX TEMP WIND PRES VSBY
 
AIR SEA DIR/SP/G  
(UTC) (F) (DEG/KT/KT) (MB) (MI)  
JOHNY MRCER PIER 1448 82 80 280/ 5/ 7 1016.1R  
NC RESRV MASNBRO 1345 80 310/ 2 1018.0  
OCEAN CREST PIER NOT AVBL  
SPRINGMAID PIER 1448 1016.7S  
 
   
...............COASTAL AND OFFSHORE BUOYS.............
 
 
 
STATION/POSITION TIME SKY/WX TEMP WIND PRES VSBY
 
AIR SEA DIR/SP/G  
(UTC) (F) (DEG/KT/KT) (MB) (MI)  
DIMNDSHOAL 41025 1450 78 81 350/ 8/ 10 1016.6R  
WVE H/P(F/S)= 2/ 7 SWL H/P/D(F/S/D)= 2/ 70/ 7  
 
CAPE LOOKOUT 1400 78 320/ 5/ 7 1016.4S  
ONSLOW BAY 41036 NOT AVBL  
ONSLOW BAY 41064 1408 78 81 350/ 4/ 8 1016.9S  
ONSLOW BAY 41159 1443 81 N/A  
WVE H/P(F/S)= 2/ 8  
 
MASNBO INL 41110 1459 80 N/A  
WVE H/P(F/S)= 1/ 6  
 
WILM HARBR 41108 NOT AVBL  
27SE WRITB 41037 1408 78 80 330/ 6/ 10 1016.4R  
FRYING PAN 41013 1450 79 80 10/ 6/ 6 1017.0R  
WVE H/P(F/S)= 2/ 9 SWL H/P/D(F/S/D)= 2/140/ 9  
 
SUNST NRSH 41024 1408 77 79 250/ 2/ 4 1017.0F  
CAPRS NRSH 41029 1408 85 83 20/ 8/ 12 1017.0F  
EDISTO 41004 1450 79 81 30/ 10/ 14 1016.6R  
WVE H/P(F/S)= 2/ 8 SWL H/P/D(F/S/D)= 2/110/ 8  
 
   
.........OFFSHORE BUOYS BEYOND 100 NM OFFSHORE........
 
   
....IN A TRIANGLE---HAT TO BERMUDA TO BAHAMAS TO HAT..
 
 
 
 
STATION/POSITION TIME SKY/WX TEMP WIND PRES VSBY
 
AIR SEA DIR/SP/G  
(UTC) (F) (DEG/KT/KT) (MB) (MI)  
150E HAT 41001 1500 75 79 160/ 6/ 8 1016.5  
W BERMUDA 41048 1500 81 81 220/ 16/ 17 1018.6  
ATLANTIC S 41049 1450 81 83 110/ 8/ 10 1021.3S  
WVE H/P(F/S)= 3/ 7 SWL H/P/D(F/S/D)= 3/170/ 7  
 
E BAHAMAS 41046 1450 82 83 110/ 10/ 12 1019.6S  
WVE H/P(F/S)= 4/ 8 SWL H/P/D(F/S/D)= 3/120/ 8  
 
NE BAHAMAS 41047 1450 82 83 180/ 12/ 14 1019.5R  
WVE H/P(F/S)= 3/ 7 SWL H/P/D(F/S/D)= 2/160/ 7  
 
120E CANVRL41010 1450 83 84 220/ 12/ 14 1016.8R  
WVE H/P(F/S)= 3/ 7 SWL H/P/D(F/S/D)= 2/140/ 7  
 
END  
 
 
CLICK HERE TO GO TO PREVIOUS BULLETINS.

The Nexlab NC Page
The Nexlab SC Page Main Text Page